Location: Home
(42.5358°N, 72.7383°W)
Time: 21:38:27
(UTC-05:00)

Vanguard 2 - Pass Details

Date: 29 November 2021
Orbit: 553 x 2936 km, 32.9° (Epoch: 20 January)

Event Time Altitude Azimuth Distance (km) Brightness Sun altitude
Rises 13:39:59 0° 218° (SW) 3,094 12.2 20.1°
Reaches altitude 10° 13:42:27 10° 203° (SSW) 2,383 12.2 19.9°
Maximum altitude 13:46:53 24° 150° (SSE) 1,990 10.2 19.4°
Drops below altitude 10° 13:53:06 10° 101° (ESE) 3,465 10.7 18.8°
Sets 13:57:36 0° 90° (E) 4,915 11.3 18.4°
